Retour au catalogue

STARLINK-34945

ActifCommunicationsSSO
NORAD 65185·PAYLOAD·🇺🇸 United States

Lancé Aug 14, 2025 depuis Vandenberg Space Force Base

Loading…

Prochains Passages (prochaines 24 heures)

TLE

FraisSource: CelesTrak SupGP

Époque: Sep 15, 2026, 03:21 UTC

1 65185C 25175M   26258.14006944  .00018869  00000+0  58600-3 0  2587
2 65185  97.2848 127.1459 0002021  98.8784  58.5113 15.33413751    10

Suivez STARLINK-34945 en temps réel avec AllMySat

Download on the App Store